sat.trackr.live / text

‹ back to catalog

ONEWEB-0239

NORAD 48802 · 2021-045AM

PAYLOAD ACTIVE UNKNOWN

§ Identity

Operator
Country
UK
Launch date
2021-05-28
Launch site
VOSTO
Launch vehicle
Mass (kg)
RCS (m²)

Purposes: comms

External: N2YO · Heavens-Above · Gunter

§ Orbital elements

Epoch: 2026-09-19T17:37:07.100544Z

Period
109.46 min
Inclination
87.8991°
Eccentricity
0.0001785
Mean motion
13.15547904 rev/d
Perigee alt
1,200.4 km
Apogee alt
1,203.1 km
Semi-major
7,579.9 km
B*
-2.6240e-4
RAAN
240.3513°
Arg perigee
58.5064°
Mean anomaly
301.6241°
Rev number
25,677

§ Raw data

ONEWEB-02391 48802U 21045AM  26262.73410996 -.00000086  00000+0 -26240-3 0  99932 48802  87.8991 240.3513 0001785  58.5064 301.6241 13.15547904256776

JSON: /api/v1/satellites/48802 · /tle

For live sub-satellite position, see the globe view (requires WebGL).

§ Visibility from observer

Set your observer location to see the next 7 days of passes ≥ 10°. The values pass through the URL so the page stays shareable.

No JS? Fill the form by hand. The geolocation button needs JavaScript.